Regional Weather Roundup
Issued by NWS Midland/Odessa, TX

Skip options and go directly to product.
Home | Oldest Version | Previous Version | Current Version | All | Text Only | Save Text | Print | Product List | Glossary Off

Skip product version selection by date and time.   

629
ASUS44 KMAF 301110
RWRMAF
MIDLAND AREA WEATHER ROUNDUP
NATIONAL WEATHER SERVICE MIDLAND TX
600 AM CDT TUE SEP 30 2014

...IN SOUTHWEST TEXAS AND SOUTHEAST NEW MEXICO...

CITY           SKY/WX    TMP DP  RH WIND       PRES   REMARKS
ALPINE         PTCLDY    63  56  78 SW7       30.04F
ANDREWS        CLOUDY    63  59  88 S3        29.91S
ARTESIA        NOT AVBL
BIG SPRING     CLEAR     66  59  78 SE10      29.92F
CARLSBAD       CLEAR     62  59  90 SE3       29.88S
DRYDEN           N/A     67  63  87 N6        29.89S
FORT STOCKTON  PTCLDY    65  59  81 SE7       29.89F
GUAD PASS      CLEAR     61  55  81 W9        30.04R
HOBBS          NOT AVBL
MARFA          CLEAR     54  52  94 CALM      30.04S
MIDLAND AIRPK  PTCLDY    66  60  79 S7        29.91S
MIDLAND INTL   PTCLDY    63  58  83 SE6       29.90S
ODESSA         PTCLDY    66  59  78 S10       29.91S
PECOS          PTCLDY    63  59  86 E5        29.86S
PRESIDIO       FAIR      69  60  72 N7        29.91S
SEMINOLE       PTCLDY    61  59  92 CALM      29.92F
SNYDER         CLEAR     63  57  82 S6        29.91S
WINK           CLEAR     66  61  84 SE10      29.87S
$$
...OTHER STATIONS IN TEXAS...

CITY           SKY/WX    TMP DP  RH WIND       PRES   REMARKS
ABILENE        CLEAR     67  56  67 S8        29.91F
AMARILLO       CLEAR     61  56  83 S14       29.91F
AUSTIN         CLEAR     63  62  97 CALM      29.89R
BROWNSVILLE    FOG       75  75 100 CALM      29.83R VSB 1/4
CORPUS CHRISTI PTCLDY    75  73  93 NE3       29.83S
DALLAS FTW     MOCLDY    72  65  78 CALM      29.89S
DEL RIO        CLEAR     69  66  90 E7        29.86F
EL PASO        PTCLDY    70  54  56 SW7       29.93S
HOUSTON INT    PTCLDY    72  70  93 CALM      29.86F
LUBBOCK        PTCLDY    62  57  83 S8        29.91F
SAN ANGELO     CLEAR     63  60  90 S6        29.90F
SAN ANTONIO    CLEAR     68  63  84 NW3       29.89S
WACO           MOCLDY    66  60  81 CALM      29.89S
WICHITA FALLS  NOT AVBL
$$
...OTHER LOCATIONS IN NEW MEXICO...

CITY           SKY/WX    TMP DP  RH WIND       PRES   REMARKS
ALAMAGORDO     PTCLDY    63  55  77 S7        29.95S
ALBUQUERQUE    CLEAR     50  36  58 CALM      30.04F
CANNON AFB     NOT AVBL
CLOVIS           N/A     55  54  94 SE5       29.97S
HOLLOMAN AFB   CLEAR     63  56  78 SE7       29.92F
ROSWELL        CLEAR     61  57  87 NW5       29.91R
RUIDOSO        CLEAR     55  30  38 NW9       30.10S
SANTA FE       CLEAR     42  32  67 N10       30.06S WCI  36
TRUTH OR CONSE CLEAR     59  43  55 CALM      29.99S
TUCUMCARI      CLEAR     61  55  81 W10       29.89S
$$

USA.gov is the U.S. government's official web portal to all federal, state and local government web resources and services.